FENGYUN 1C DEB, 41831

Orbit data source: Space-Track

FENGYUN 1C DEB, 41831 is space debris in SSO originally from a launch on Mon, 10 May 1999 UTC launched from the Taiyaun Space Center, China (TSC). Fengyun 1C debris stems from the Chinese weather satellite Fengyun-1C, which was intentionally destroyed by a Chinese anti-satellite missile in 2007. This event dramatically increased the amount of space debris, with thousands of trackable fragments posing hazards to satellites and human spaceflight. The Fengyun 1C debris cloud has become a focal point in discussions about space sustainability and the need for international regulations to prevent the creation of new debris.

Loading next visibility...
Identifier
41831, 1999-025EYJ
Orbit
SSO
Country
Flag of CNCN / PRC
Related business
Manufacturer
Unknown
Mission
Spacecraft
Bus & Motor
Unknown
Mass
Unknown
Launch date (UTC)
1999-05-10 (27 years ago)
Launch vehicle
Unknown
Launch site
Taiyaun Space Center, China (TSC)
Object type
Payload
Rocket body
Debris
Shape & HBR
Unknown shape, 0.1 m
Radar Cross Section
Small (<0.1 m²)

Expand to show TLE details & history
Last TLE update: 20 hours ago

TLE from 20 hours ago
0 FENGYUN 1C DEB
1 41831U 99025EYJ 26256.17255163  .00001893  00000-0  79554-3 0  9997
2 41831  98.7169 326.5997 0056078 144.5722 215.9203 14.26190260511696
Epoch: 2026-09-13T04:08Z
TLE epoch observation values (Epoch: 2026-09-13T04:08:28.460Z)
Latitude
-0.00008°
Longitude
-87.68988°
Altitude
840.119 km
Speed
7.416 km/s
True Right ascension
21h 46m 23s
True Declination
0° 00' 00"
Sunlit
Object was in full shadow at epoch
Visualization orbit readout
Latitude
Unknown
Longitude
Unknown
Altitude
Unknown
Speed
Unknown
Apparent Right ascension
Unknown
Apparent Declination
Unknown
Sunlit
N/A
Visualization observer readout
Local Sidereal Time
16:56:33
Azimuth
Unknown
Elevation
Unknown
Doppler factor
Unknown
Orbital elements
Apogee altitude
841.907 km
Perigee altitude
761.381 km
Semi-major axis
7,179.781 km
Eccentricity
0.00561
Inclination
98.7169°
RAAN
326.5997°
Arg. of periapsis
144.5722°
True anomaly
215.54544°
Mean anomaly
215.9203°
Eccentric anomaly
215.73266°
Mean motion
3.5676 °/min
Orbital period
100.91 mins
BSTAR
0.00079554
Loading maneuver chart data...
Computing Atmospheric mass density...
Loading historical data...
Loading historical data...
Loading historical data...
Loading historical data...
Loading historical data...
Loading historical data...
Loading historical data...

Documentation

Showing up to 5 results
|